TimeCDT,TemperatureF,Dew PointF,Humidity,Sea Level PressureIn,VisibilityMPH,Wind Direction,Wind SpeedMPH,Gust SpeedMPH,PrecipitationIn,Events,Conditions,WindDirDegrees,DateUTC
12:15 AM,57.2,45.1,64,30.01,10.0,Calm,Calm,-,N/A,,Clear,0,2013-09-15 05:15:00
12:35 AM,57.2,45.1,64,30.01,10.0,South,3.5,-,N/A,,Clear,170,2013-09-15 05:35:00
12:55 AM,57.2,45.0,64,30.01,10.0,Calm,Calm,-,N/A,,Clear,0,2013-09-15 05:55:00
1:15 AM,57.4,44.8,63,30.01,10.0,SSE,3.5,-,N/A,,Clear,160,2013-09-15 06:15:00
1:35 AM,57.4,44.8,63,30.01,10.0,SE,3.5,-,N/A,,Scattered Clouds,130,2013-09-15 06:35:00
1:55 AM,56.7,45.5,66,30.01,10.0,Calm,Calm,-,N/A,,Mostly Cloudy,0,2013-09-15 06:55:00
2:15 AM,56.7,45.9,67,30.02,10.0,Calm,Calm,-,N/A,,Light Drizzle,0,2013-09-15 07:15:00
2:35 AM,56.8,46.2,68,30.02,10.0,Calm,Calm,-,N/A,,Overcast,0,2013-09-15 07:35:00
2:55 AM,55.9,47.7,74,30.02,10.0,Calm,Calm,-,N/A,Rain,Light Rain,0,2013-09-15 07:55:00
3:15 AM,55.8,48.4,76,30.03,10.0,Calm,Calm,-,N/A,,Overcast,0,2013-09-15 08:15:00
3:35 AM,55.4,49.1,79,30.03,10.0,Calm,Calm,-,N/A,Rain,Light Rain,0,2013-09-15 08:35:00
3:55 AM,55.2,48.9,79,30.04,7.0,Calm,Calm,-,0.07,Rain,Rain,0,2013-09-15 08:55:00
4:15 AM,53.6,50.0,88,30.03,7.0,Calm,Calm,-,0.02,Rain,Light Rain,0,2013-09-15 09:15:00
4:35 AM,52.9,51.1,94,30.03,10.0,South,3.5,-,0.03,Rain,Light Rain,170,2013-09-15 09:35:00
4:55 AM,52.7,51.3,95,30.03,10.0,SSW,3.5,-,0.04,Rain,Light Rain,210,2013-09-15 09:55:00
5:15 AM,52.9,51.3,94,30.03,10.0,South,3.5,-,0.01,Rain,Light Rain,170,2013-09-15 10:15:00
5:35 AM,52.7,51.3,95,30.02,10.0,SSE,3.5,-,0.02,Rain,Light Rain,160,2013-09-15 10:35:00
5:55 AM,52.7,51.8,97,30.02,10.0,South,3.5,-,0.04,Rain,Light Rain,170,2013-09-15 10:55:00
6:15 AM,52.7,51.8,97,30.01,10.0,SSE,4.6,-,N/A,,Overcast,160,2013-09-15 11:15:00
6:35 AM,52.7,51.1,94,30.01,10.0,SSE,4.6,-,N/A,,Overcast,160,2013-09-15 11:35:00
6:55 AM,52.7,51.3,95,30.00,10.0,SSE,5.8,-,N/A,Rain,Rain,150,2013-09-15 11:55:00
7:15 AM,52.7,51.3,95,30.01,10.0,SSE,4.6,-,N/A,,Overcast,160,2013-09-15 12:15:00
7:35 AM,52.7,51.4,95,30.00,10.0,SSE,5.8,-,N/A,,Overcast,150,2013-09-15 12:35:00
7:55 AM,52.7,51.8,97,30.00,10.0,SSE,4.6,-,0.01,,Drizzle,160,2013-09-15 12:55:00
8:15 AM,52.9,51.8,96,30.01,10.0,South,5.8,-,N/A,,Overcast,180,2013-09-15 13:15:00
8:55 AM,53.6,52.0,94,30.00,7.0,SSE,4.6,-,0.02,Rain,Light Rain,160,2013-09-15 13:55:00
9:15 AM,53.2,51.8,95,30.00,4.0,South,6.9,-,0.03,Rain,Rain,170,2013-09-15 14:15:00
9:35 AM,53.1,52.2,97,30.00,7.0,SSE,4.6,-,0.06,Rain,Light Rain,160,2013-09-15 14:35:00
9:55 AM,53.2,52.3,97,30.00,10.0,SSE,4.6,-,0.07,Rain,Rain,150,2013-09-15 14:55:00
10:15 AM,53.6,52.7,97,30.01,7.0,South,4.6,-,0.01,Rain,Rain,170,2013-09-15 15:15:00
12:15 PM,54.9,54.5,99,30.00,5.0,SE,3.5,-,0.02,Rain,Rain,130,2013-09-15 17:15:00
12:35 PM,54.9,54.1,97,30.00,5.0,Calm,Calm,-,0.04,Rain,Light Rain,0,2013-09-15 17:35:00
12:55 PM,55.2,54.1,96,30.02,4.0,Calm,Calm,-,0.08,Rain,Rain,0,2013-09-15 17:55:00
1:15 PM,55.4,54.1,96,30.01,7.0,Calm,Calm,-,0.02,Rain,Rain,0,2013-09-15 18:15:00
1:35 PM,55.4,54.0,95,30.03,10.0,Calm,Calm,-,0.02,,Overcast,0,2013-09-15 18:35:00
1:55 PM,55.8,54.7,96,30.03,10.0,Calm,Calm,-,0.02,,Overcast,0,2013-09-15 18:55:00
2:15 PM,55.6,54.5,96,30.03,3.0,NNE,4.6,-,N/A,Rain,Light Rain,30,2013-09-15 19:15:00
2:35 PM,56.5,55.4,96,30.03,4.0,NNE,3.5,-,N/A,,Overcast,30,2013-09-15 19:35:00
2:55 PM,56.7,55.0,94,30.03,7.0,Calm,Calm,-,N/A,,Overcast,0,2013-09-15 19:55:00
3:15 PM,57.2,55.2,93,30.04,10.0,North,4.6,-,N/A,,Overcast,10,2013-09-15 20:15:00
3:35 PM,57.2,55.4,94,30.04,10.0,North,5.8,-,N/A,,Overcast,10,2013-09-15 20:35:00
4:15 PM,59.2,55.6,88,30.05,10.0,North,8.1,-,N/A,,Overcast,10,2013-09-15 21:15:00
4:35 PM,58.3,54.9,88,30.06,10.0,NNE,6.9,-,N/A,,Overcast,20,2013-09-15 21:35:00
4:55 PM,59.0,54.9,86,30.07,10.0,North,6.9,-,N/A,,Overcast,10,2013-09-15 21:55:00
5:15 PM,58.8,54.7,86,30.07,10.0,NNE,6.9,-,N/A,,Overcast,20,2013-09-15 22:15:00
5:35 PM,59.4,54.1,83,30.08,10.0,NNE,6.9,-,N/A,,Mostly Cloudy,30,2013-09-15 22:35:00
5:55 PM,59.2,54.0,83,30.09,10.0,NNE,4.6,-,N/A,,Scattered Clouds,30,2013-09-15 22:55:00
6:15 PM,59.5,53.8,81,30.09,10.0,North,4.6,-,N/A,,Scattered Clouds,360,2013-09-15 23:15:00
6:35 PM,58.8,53.8,83,30.11,10.0,North,4.6,-,N/A,,Clear,10,2013-09-15 23:35:00
6:55 PM,57.7,53.6,86,30.11,10.0,NNE,4.6,-,N/A,,Clear,20,2013-09-15 23:55:00
7:15 PM,56.5,53.6,90,30.12,10.0,Calm,Calm,-,N/A,,Clear,0,2013-09-16 00:15:00
7:35 PM,56.5,53.2,89,30.13,10.0,North,4.6,-,N/A,,Clear,10,2013-09-16 00:35:00
7:55 PM,55.6,52.7,90,30.14,10.0,Calm,Calm,-,N/A,,Clear,0,2013-09-16 00:55:00
8:15 PM,54.9,52.5,92,30.14,10.0,NNE,3.5,-,N/A,,Clear,30,2013-09-16 01:15:00
8:35 PM,54.9,52.7,92,30.16,10.0,Calm,Calm,-,N/A,,Clear,0,2013-09-16 01:35:00
8:55 PM,54.1,52.3,94,30.16,10.0,North,3.5,-,N/A,,Mostly Cloudy,10,2013-09-16 01:55:00
9:15 PM,55.0,53.1,93,30.17,10.0,Calm,Calm,-,N/A,,Overcast,0,2013-09-16 02:15:00
9:35 PM,55.8,53.6,92,30.18,10.0,NNE,5.8,-,N/A,,Overcast,20,2013-09-16 02:35:00
9:55 PM,56.7,53.1,88,30.19,10.0,NE,15.0,20.7,N/A,,Overcast,40,2013-09-16 02:55:00
10:15 PM,55.9,52.2,87,30.21,10.0,NNE,13.8,-,N/A,,Overcast,30,2013-09-16 03:15:00
10:35 PM,55.4,51.8,88,30.22,10.0,NNE,10.4,-,N/A,,Overcast,30,2013-09-16 03:35:00
10:55 PM,55.4,51.8,88,30.22,10.0,North,8.1,-,N/A,,Overcast,10,2013-09-16 03:55:00
11:15 PM,55.0,50.0,83,30.23,10.0,NNE,11.5,16.1,N/A,,Overcast,30,2013-09-16 04:15:00
11:35 PM,54.5,50.0,85,30.23,10.0,NNE,8.1,-,N/A,,Overcast,30,2013-09-16 04:35:00
11:55 PM,54.3,50.0,85,30.24,10.0,NNE,9.2,-,N/A,,Overcast,30,2013-09-16 04:55:00